Terug naar catalogus

JILIN-01-08

ActiefWetenschapSSO
NORAD 43160·PAYLOAD·🇨🇳 China

Gelanceerd Jan 19, 2018 vanaf Jiuquan Satellite Launch Center

Loading…

Volgende Passages (komende 24 uur)

TLE

VersSource: Space-Track

Epoch: Sep 14, 2026, 13:54 UTC

1 43160U 18008F   26257.57934151  .00005367  00000-0  16178-3 0  9995
2 43160  97.1797 274.4032 0008076 108.2097 252.0026 15.34693434478655

Volg JILIN-01-08 in realtime met AllMySat

Download on the App Store